EST,Max TemperatureF,Mean TemperatureF,Min TemperatureF,Max Dew PointF,MeanDew PointF,Min DewpointF,Max Humidity, Mean Humidity, Min Humidity, Max Sea Level PressureIn, Mean Sea Level PressureIn, Min Sea Level PressureIn, Max VisibilityMiles, Mean VisibilityMiles, Min VisibilityMiles, Max Wind SpeedMPH, Mean Wind SpeedMPH, Max Gust SpeedMPH,PrecipitationIn, CloudCover, Events, WindDirDegrees
2014-1-1,10,2,-7,0,-7,-15,85,67,48,30.43,30.37,30.32,10,10,10,12,8,,0.00,4,,329
2014-1-2,12,5,-2,1,-5,-9,85,67,52,30.37,30.33,30.29,10,10,10,14,7,20,0.00,2,,327
2014-1-3,21,5,-9,12,-2,-17,100,73,57,30.34,30.07,29.64,10,9,2,26,10,45,0.00,5,,230
2014-1-4,26,16,5,19,12,0,93,74,58,30.03,29.73,29.54,10,9,1,24,13,37,0.00,6,,250
2014-1-5,8,3,-2,3,-4,-11,92,69,52,30.16,30.07,29.91,10,10,10,17,8,23,0.00,1,,311
2014-1-6,-2,-8,-14,-11,-18,-26,70,59,50,29.92,29.87,29.82,10,10,3,22,16,31,0.00,3,,292
2014-1-7,0,-8,-16,-11,-19,-26,84,65,51,30.14,29.97,29.88,10,10,5,24,14,29,0.00,2,,258
2014-1-8,12,2,-9,0,-9,-17,100,72,52,30.43,30.27,30.14,10,10,10,13,7,,0.00,0,,270
2014-1-9,15,-2,-18,10,-5,-27,100,76,56,30.44,30.32,30.11,10,10,8,12,5,,0.00,2,,234
2014-1-10,33,24,14,32,23,7,100,88,73,30.10,29.85,29.47,10,5,1,14,4,20,0.01,8,,183
2014-1-11,33,30,28,32,28,25,100,90,80,29.55,29.38,29.29,10,7,0,15,7,22,0.12,8,,292
2014-1-12,33,30,26,30,26,21,93,86,80,29.65,29.55,29.47,10,8,1,17,8,25,0.00,5,,207
2014-1-13,35,32,28,30,27,16,93,79,59,29.62,29.48,29.39,10,9,6,14,8,20,0.00,8,,272
2014-1-14,28,24,19,21,17,12,93,78,59,29.78,29.68,29.61,10,6,0,17,6,33,0.00,8,,3
2014-1-15,19,16,12,12,7,3,85,72,58,29.92,29.82,29.64,10,10,5,17,13,24,0.00,8,,273
2014-1-16,26,19,12,23,18,7,93,84,74,29.62,29.46,29.38,10,6,0,21,13,28,0.00,8,,214
2014-1-17,28,20,12,25,16,5,93,79,63,29.86,29.71,29.54,10,7,1,16,8,25,0.44,8,,330
2014-1-18,21,8,-2,14,5,-15,100,80,55,29.85,29.79,29.62,10,10,1,10,5,,0.08,3,,259
2014-1-19,28,20,12,21,14,5,86,79,68,29.61,29.46,29.36,10,8,2,15,9,20,0.00,8,,274
2014-1-20,12,6,-2,5,-2,-11,85,65,48,30.17,29.92,29.61,10,9,3,15,9,23,0.00,3,,317
2014-1-21,8,-2,-11,-2,-9,-22,100,68,52,30.27,30.19,30.08,10,10,10,15,10,24,0.00,1,,305
2014-1-22,6,3,0,1,-2,-8,85,78,61,30.07,29.91,29.80,10,5,1,12,6,,0.00,8,,278
2014-1-23,10,0,-9,7,-4,-20,100,74,48,30.42,30.31,30.02,10,9,1,15,6,21,0.00,4,,317
2014-1-24,19,7,-5,16,1,-15,86,76,65,30.24,29.64,29.20,10,8,2,16,11,25,0.00,6,,226
2014-1-25,21,8,-5,18,-5,-15,86,62,44,29.68,29.49,29.19,10,9,2,20,12,30,0.00,5,,305
2014-1-26,6,2,-2,3,-4,-11,92,76,61,29.64,29.43,29.24,10,5,0,22,7,33,0.00,8,,283
2014-1-27,0,-6,-11,-9,-16,-22,77,58,43,30.15,29.95,29.54,10,9,3,23,15,32,0.00,1,,286
2014-1-28,5,-6,-16,-9,-15,-24,92,63,47,30.15,30.03,29.84,10,10,9,18,11,25,0.00,2,,251
2014-1-29,15,5,-5,7,-4,-13,79,65,45,29.90,29.84,29.73,10,10,10,17,11,25,0.00,3,,220
2014-1-30,24,17,10,21,15,1,93,79,67,29.77,29.60,29.46,10,7,0,20,13,29,0.00,7,,230
2014-1-31,10,-2,-13,5,-4,-24,100,73,54,30.05,29.98,29.79,10,10,4,15,7,16,0.00,1,,256